GEFSSE_500_meanwind_054.txt.gz
Wind_Speed
10 11 12 12 12 12 13 13 13 14 14 14 15 15 15 15 14 14 14 14 15 15 16 16 16 16 16 15 15 14 14 14 13 12 12 11 10 9 8 7 7 7 7
8 9 9 10 10 11 11 12 12 13 13 13 14 14 14 14 14 13 13 13 13 14 14 15 15 16 15 15 15 14 14 13 12 12 11 11 10 10 9 7 6 6 6
6 7 7 8 9 9 9 10 10 11 11 12 12 12 13 13 13 13 13 13 13 13 13 14 14 15 15 15 14 14 13 13 12 11 11 10 10 9 8 7 6 5 4
4 5 6 7 7 8 8 8 9 9 9 10 11 11 12 13 13 13 12 12 12 12 12 12 13 14 15 15 14 13 13 12 12 11 10 9 9 8 7 6 5 4 3
4 5 6 7 7 7 8 8 8 8 8 8 9 10 11 12 12 13 12 12 11 11 11 12 12 13 14 14 14 13 12 12 11 11 11 10 8 8 7 5 4 3 2
6 7 7 8 8 8 9 9 9 8 8 8 9 10 10 11 12 12 12 12 12 11 11 11 12 12 13 13 13 13 12 11 11 10 10 10 9 8 6 5 4 3 3
7 8 8 9 9 10 10 11 11 11 11 11 11 11 11 12 12 12 12 12 12 12 12 12 12 12 12 12 13 12 12 11 11 10 10 10 9 7 6 6 5 4 3
9 10 10 10 11 11 12 12 12 12 12 12 12 12 12 13 13 13 13 13 13 12 12 12 12 12 12 12 12 12 12 11 11 11 11 10 9 8 7 7 6 5 4
10 11 11 11 11 11 12 12 12 12 12 12 13 13 13 13 14 13 13 13 13 13 13 13 13 13 13 13 13 12 12 12 11 11 11 11 10 9 8 7 7 7 6
11 12 12 12 11 11 12 12 12 12 12 13 13 13 14 14 14 14 14 14 14 14 14 14 14 15 15 14 14 13 13 13 12 12 12 11 11 11 9 9 8 8 8
11 12 12 11 11 11 11 11 12 13 13 13 14 14 14 14 15 15 15 15 16 16 16 16 16 16 16 16 16 16 15 14 14 14 14 13 12 12 11 10 10 9 10
12 12 12 12 12 12 13 13 14 14 15 15 15 15 16 16 16 17 16 16 16 17 17 18 18 18 18 18 18 18 18 17 17 16 16 16 15 14 13 12 12 11 11
13 14 15 15 15 15 16 17 17 18 18 18 18 18 18 19 19 20 19 19 19 19 19 19 20 20 21 21 20 20 20 20 19 19 19 18 18 17 16 15 14 13 12
17 17 18 20 21 21 21 23 23 22 22 22 22 22 22 22 22 22 23 23 23 23 23 23 23 23 23 23 23 23 23 23 22 22 22 21 20 20 19 18 16 15 14
23 23 24 25 26 27 27 27 27 27 27 27 27 27 27 27 26 26 25 26 27 27 27 26 26 26 26 26 26 26 26 25 25 24 24 24 24 23 22 21 19 18 17
27 28 29 30 31 33 33 33 32 31 31 30 30 30 30 31 31 31 30 30 30 30 30 30 29 29 28 28 28 28 28 27 28 27 27 27 27 26 24 23 22 21 20
31 33 34 35 36 37 38 38 37 36 35 34 33 33 33 34 34 35 35 34 33 33 33 32 32 31 30 30 30 31 30 29 29 29 28 28 28 27 26 25 25 24 22
36 37 38 39 39 40 41 40 41 40 38 37 37 37 36 36 37 37 37 37 36 35 35 34 34 33 32 31 31 31 31 32 31 31 30 29 29 28 27 27 27 27 25
38 38 39 40 40 40 39 41 42 41 40 40 40 39 38 38 38 38 38 38 38 37 36 35 35 34 33 32 32 31 31 32 32 31 30 29 29 29 28 28 27 27 27
37 38 38 40 40 39 37 38 39 39 39 40 40 40 40 40 39 38 39 38 38 39 37 37 36 35 34 33 32 31 30 31 30 31 29 29 29 29 29 30 29 28 28
36 37 39 40 40 40 39 38 38 37 38 39 40 40 40 40 40 39 39 38 39 39 39 38 37 36 34 33 34 32 31 31 30 30 30 29 29 28 29 30 30 30 28
36 39 40 42 42 41 40 41 40 40 39 38 39 39 40 41 41 42 42 41 40 41 41 40 38 37 36 35 35 34 32 31 31 30 30 30 30 29 29 29 29 30 29
38 40 40 41 41 41 41 41 40 40 39 38 38 39 40 41 42 43 42 42 42 43 43 41 40 39 37 36 35 35 33 31 32 31 31 31 30 30 30 29 27 28 29
38 38 38 39 39 39 40 40 40 40 39 38 38 38 39 40 41 41 42 42 43 43 43 42 42 40 38 37 37 36 35 34 33 32 32 32 32 31 32 30 29 29 30
35 35 35 36 37 38 38 39 39 39 39 38 38 38 38 39 40 41 42 43 43 43 43 43 43 42 41 39 38 37 36 35 34 33 32 32 32 30 30 31 30 29 29
34 34 34 35 36 37 38 38 39 39 39 39 39 39 39 39 40 41 42 42 43 43 43 44 44 44 44 42 40 39 38 37 36 34 33 32 30 29 30 30 29 29 30

GEFSSE_500_meanwind_060.txt.gz
Wind_Speed
11 11 11 12 12 13 14 14 15 15 15 16 16 16 16 16 16 15 15 14 14 14 15 16 16 16 15 15 14 14 13 13 12 11 10 9 8 7 5 5 5 5 6
10 10 10 11 11 12 13 13 13 14 14 14 14 15 15 15 15 14 14 14 14 14 14 14 15 15 14 13 13 13 13 13 11 10 9 8 7 6 5 4 4 4 5
9 9 9 10 10 11 12 12 12 12 12 13 13 13 13 13 13 13 13 13 13 13 13 13 13 13 13 12 11 11 11 12 11 10 8 7 6 5 4 3 3 3 4
8 8 8 9 9 10 11 11 11 11 11 11 11 12 12 12 12 12 12 12 12 12 11 11 11 11 11 11 10 10 10 10 10 9 8 7 5 4 3 2 2 2 3
6 7 7 8 8 9 9 10 10 10 10 10 10 10 10 11 11 11 11 11 11 11 10 10 10 10 10 10 9 9 8 8 9 9 9 8 6 5 4 2 1 1 1
5 6 7 7 8 8 8 9 9 9 9 9 9 9 10 10 10 10 10 10 10 10 10 9 9 9 9 9 9 8 8 7 7 8 8 8 7 5 4 3 2 1 0
6 7 8 8 9 9 9 9 8 8 8 8 8 9 9 10 10 10 10 10 10 10 10 10 10 9 9 9 8 8 8 7 7 7 7 7 8 7 5 4 3 2 2
9 9 10 10 9 9 9 9 9 8 8 8 8 9 9 10 10 10 10 10 10 10 10 10 10 10 10 9 9 8 8 8 7 7 7 7 7 7 6 5 4 4 3
10 10 10 10 10 10 10 10 10 9 9 9 10 10 10 11 11 11 11 11 11 11 11 11 11 11 11 11 10 9 9 9 9 8 8 7 7 7 7 6 5 5 5
10 10 10 11 11 11 11 12 12 11 11 12 12 12 12 12 12 13 13 13 13 13 13 13 13 13 13 12 12 12 11 11 10 10 10 9 8 8 8 7 7 7 7
10 10 11 11 12 13 13 14 14 14 15 15 15 15 15 15 15 16 16 16 16 16 16 16 16 16 15 15 15 15 14 14 13 13 13 12 11 11 10 9 9 9 9
11 12 12 13 14 15 16 17 17 18 18 18 18 18 19 19 19 19 19 20 20 20 20 20 20 20 19 18 18 18 18 17 17 16 16 16 15 14 13 12 12 11 11
15 16 16 17 18 19 20 21 22 22 22 23 23 23 23 24 24 23 24 24 24 24 24 24 24 23 23 22 22 22 21 21 20 20 20 19 19 18 17 16 16 15 14
19 21 22 23 24 24 25 26 27 27 28 28 28 28 28 28 29 28 28 28 28 28 29 29 29 28 27 27 26 25 25 25 24 24 24 23 22 21 21 20 19 18 17
24 25 26 27 28 29 30 31 32 32 33 33 32 33 33 32 33 33 33 32 32 32 32 32 33 32 31 31 30 29 29 28 28 27 27 27 25 24 23 23 23 21 21
27 28 29 30 32 32 33 35 36 37 37 37 37 38 37 36 36 37 37 36 36 35 35 35 36 36 35 35 34 33 33 32 30 30 29 29 28 27 26 25 25 25 24
28 29 30 31 32 33 34 35 36 37 38 39 39 40 40 40 39 39 39 39 38 38 38 38 39 40 39 39 38 37 36 34 33 31 31 30 30 29 28 27 27 27 27
29 30 30 31 32 33 34 34 36 37 38 38 39 40 40 41 42 42 41 40 39 40 40 40 41 42 42 42 41 40 37 36 34 32 32 33 32 31 31 30 29 29 29
31 31 32 33 33 33 34 35 36 37 37 37 37 37 37 39 39 40 40 40 40 40 41 42 42 42 42 42 41 39 38 37 34 33 31 32 33 32 31 31 30 30 30
34 34 34 34 34 35 35 36 37 37 36 36 36 36 37 38 39 40 39 40 40 40 40 41 42 42 42 41 39 37 35 35 35 35 33 32 31 32 32 32 31 30 31
34 34 35 35 35 36 37 37 36 36 35 35 35 34 35 36 37 39 39 38 39 40 40 42 42 41 41 40 38 36 34 32 32 33 33 32 31 32 32 31 30 31 31
34 35 35 36 36 37 37 37 36 35 35 34 34 34 34 34 35 36 37 38 39 39 40 40 40 41 40 41 38 35 33 32 32 32 32 31 32 33 32 31 31 31 31
35 36 36 36 36 36 36 36 35 34 34 34 33 33 33 34 34 35 36 37 38 38 39 39 40 40 39 39 38 37 35 33 32 31 31 31 31 31 32 33 32 33 32
36 36 36 35 35 35 35 34 33 33 32 32 33 33 34 34 34 35 36 37 38 38 38 38 38 39 39 38 38 37 35 33 31 30 31 32 32 31 32 33 33 32 32
34 35 35 34 33 33 32 32 32 31 32 32 33 33 34 34 34 35 36 37 38 38 39 39 38 38 38 38 37 36 36 34 32 31 31 31 32 32 32 33 32 32 32
33 33 33 32 32 32 32 31 31 31 31 32 32 33 34 35 35 36 36 37 38 39 39 39 39 39 38 38 38 37 36 35 34 33 33 32 33 33 33 32 32 31 32

GEFSSE_500_meanwind_066.txt.gz
Wind_Speed
9 10 10 9 9 8 8 8 8 8 9 10 10 10 10 10 10 10 10 9 9 9 9 9 9 9 9 8 9 9 8 7 7 6 6 5 5 4 4 4 4 4 5
7 8 8 7 7 6 6 6 6 6 7 7 8 8 8 9 9 8 8 7 7 7 7 7 7 8 7 7 7 7 6 6 6 5 5 4 4 3 3 3 3 4 4
4 5 5 4 4 4 4 5 5 5 5 6 6 6 7 7 7 7 6 6 6 5 5 5 6 6 6 6 5 5 5 5 4 4 4 3 3 2 2 2 2 3 4
2 2 3 3 3 4 4 5 6 6 6 6 6 6 6 6 6 6 6 5 5 5 4 4 5 5 5 5 5 4 4 4 3 3 3 2 1 1 1 1 3 4 5
2 3 3 4 5 6 6 7 8 8 8 7 7 6 6 6 6 6 6 5 5 5 5 5 5 5 5 5 4 4 4 3 3 2 2 1 1 1 2 2 3 5 5
4 4 4 5 7 8 8 8 9 9 9 8 7 7 7 7 7 7 7 6 6 6 6 6 6 6 6 5 5 4 4 4 3 2 2 2 1 2 3 3 4 5 6
5 6 6 7 8 9 9 9 9 9 9 9 8 8 8 8 9 8 8 8 8 8 8 8 8 8 7 7 7 6 5 5 4 4 4 3 3 3 3 4 5 6 7
6 7 7 8 9 10 10 10 10 10 10 10 10 10 11 11 11 11 11 11 11 11 10 10 10 10 10 9 9 8 8 7 7 6 6 6 5 5 5 5 6 6 7
7 8 8 9 10 11 11 11 11 11 11 12 13 13 14 14 14 14 14 14 14 14 13 13 13 13 13 12 12 11 11 10 10 9 9 8 8 7 7 6 6 7 7
9 9 10 11 12 12 12 13 13 13 14 14 15 16 17 17 18 18 18 18 18 17 17 17 16 16 16 16 16 15 14 14 13 13 12 12 11 10 10 9 8 8 8
11 12 13 14 15 15 16 16 16 16 17 17 18 18 19 20 21 21 22 22 22 21 21 21 20 20 20 20 20 19 18 17 17 16 16 15 15 14 13 12 11 10 10
15 16 17 18 19 19 20 20 21 21 22 22 23 23 24 24 25 26 26 26 26 26 26 25 25 24 24 24 24 23 22 21 20 20 20 19 18 18 17 16 15 14 13
19 21 22 23 24 25 25 26 26 26 26 27 27 28 28 29 30 31 31 31 31 31 31 30 30 29 29 28 27 26 26 25 24 24 24 23 23 22 21 20 19 18 17
23 25 26 27 28 29 29 30 30 30 30 31 31 32 32 32 33 34 35 35 35 35 35 35 34 34 33 32 31 30 30 30 29 28 28 27 26 25 24 23 23 22 21
27 28 29 30 30 31 31 32 32 31 31 32 33 33 33 34 34 35 36 37 37 38 38 39 38 38 38 36 35 35 34 34 33 33 32 31 30 28 28 27 26 25 24
30 30 30 31 31 31 31 31 31 31 30 31 32 33 33 34 34 34 34 35 37 39 40 40 40 39 39 39 39 38 39 38 37 36 36 35 33 32 31 29 29 28 27
32 32 32 32 31 30 30 30 30 30 30 31 32 32 31 32 32 32 33 33 35 37 38 39 39 40 40 40 41 41 41 40 39 39 39 38 35 35 34 32 31 31 29
34 34 33 33 32 31 30 30 30 29 30 30 30 30 29 30 30 30 31 31 33 34 35 36 37 39 40 40 40 40 40 40 39 38 37 36 36 35 35 33 32 31 30
34 35 35 34 33 32 31 30 29 28 28 28 28 28 28 28 27 28 28 28 30 31 31 32 34 35 37 39 39 39 38 38 38 38 36 35 35 35 34 33 32 32 32
35 36 36 35 34 33 32 30 29 27 27 26 26 26 26 26 26 27 27 28 29 29 30 31 33 34 35 35 37 37 37 36 36 36 36 36 35 34 34 33 33 33 32
36 37 37 35 34 33 32 30 28 27 26 25 24 24 24 24 25 26 27 27 28 29 30 31 32 33 33 35 36 36 35 35 35 34 34 34 33 33 35 34 34 33 32
37 37 37 37 35 33 32 30 28 27 26 25 23 23 23 23 23 24 25 26 27 28 29 31 32 33 33 35 36 35 36 35 34 34 33 32 32 33 34 34 34 34 33
37 37 37 36 34 33 32 30 28 27 25 24 23 23 23 23 23 23 24 25 26 27 29 30 32 33 34 35 36 36 36 34 34 33 31 30 30 30 32 33 33 33 33
36 36 36 35 35 34 32 30 29 27 26 25 24 24 24 23 23 24 25 25 26 27 28 30 31 33 34 35 36 37 37 36 34 32 30 30 30 30 30 31 31 32 33
35 35 36 36 35 34 33 32 30 29 28 27 27 26 26 25 25 25 26 26 27 28 29 30 31 33 34 35 36 37 37 37 36 34 31 31 31 31 30 31 31 31 33
34 35 36 36 35 35 34 33 31 31 30 30 29 28 28 28 27 27 27 27 28 29 30 31 32 33 35 35 36 37 37 37 36 35 34 32 32 32 31 31 31 31 33

GEFSSE_500_meanwind_072.txt.gz
Wind_Speed
5 5 5 5 6 6 7 8 9 9 10 10 10 10 10 10 10 10 10 10 11 11 11 11 12 12 12 11 11 11 11 11 10 10 9 7 6 6 5 4 4 4 4
3 3 4 4 5 5 6 7 8 10 10 11 10 10 10 10 10 10 10 10 10 10 11 11 11 11 11 11 10 10 10 10 9 9 9 8 7 5 4 3 3 3 3
2 3 3 4 5 6 6 7 9 10 11 11 11 10 10 10 10 10 10 10 10 10 10 10 10 10 10 10 9 9 9 9 9 8 8 8 7 5 4 3 2 1 1
4 4 5 6 6 7 7 8 9 10 11 11 11 11 11 11 11 11 10 10 10 10 10 9 9 9 9 9 9 8 8 8 8 8 7 7 6 5 4 3 2 1 1
6 7 7 8 8 8 9 10 10 11 11 12 12 12 12 12 12 12 11 11 11 10 10 10 10 9 9 9 9 8 8 8 7 7 7 7 6 6 5 4 3 2 2
8 9 10 10 10 11 11 11 12 12 13 12 13 13 13 13 14 14 13 13 13 12 11 11 11 10 10 10 9 9 8 8 8 7 7 6 7 6 6 5 4 4 4
10 11 11 12 12 12 13 13 13 13 14 14 14 15 15 15 16 16 16 15 15 14 14 13 13 12 12 11 11 10 10 9 9 8 8 7 7 7 6 6 6 6 6
11 12 12 13 13 13 14 14 15 15 15 16 16 17 17 18 18 18 18 18 17 17 16 16 15 14 14 13 13 12 12 11 11 10 9 9 9 8 7 7 7 7 7
12 12 13 13 13 14 15 16 16 17 17 18 19 20 20 20 20 20 20 20 20 20 19 18 18 17 17 16 16 15 15 14 13 13 12 11 11 10 9 9 8 8 8
12 12 13 14 15 16 17 18 19 19 20 21 22 23 23 24 24 23 23 23 23 22 22 22 21 21 20 19 19 19 18 18 17 16 15 14 14 13 12 11 10 10 10
13 14 15 16 17 18 19 20 21 22 23 24 25 26 26 27 26 26 27 27 27 26 26 26 25 25 24 23 23 22 22 21 20 19 18 17 17 16 15 14 13 13 12
16 17 18 19 20 21 22 23 24 24 26 27 27 28 28 29 29 29 29 30 30 30 29 28 28 28 28 27 27 26 25 25 24 23 21 21 21 20 18 18 17 16 15
19 20 21 22 22 24 24 25 26 27 27 28 29 29 30 31 31 31 31 31 31 31 31 31 31 31 31 31 30 29 28 28 27 26 25 24 24 24 22 21 20 20 19
22 22 23 24 25 26 27 27 28 29 29 29 30 30 31 32 32 32 33 33 33 32 33 33 32 33 33 33 33 32 32 31 30 30 29 28 28 27 26 25 24 23 23
25 25 26 27 27 28 29 29 30 29 30 31 31 32 31 32 32 32 32 32 33 33 32 32 32 33 33 34 34 34 33 33 32 33 32 31 31 30 30 29 28 27 26
28 29 29 30 30 31 31 30 30 30 30 30 31 32 32 32 32 31 30 30 30 31 31 31 31 31 31 31 32 32 32 32 31 32 34 32 32 32 32 32 31 31 30
32 32 32 33 33 32 32 32 32 32 32 30 31 31 31 31 31 30 29 29 29 28 28 29 29 29 28 28 27 28 30 31 31 31 33 34 33 33 34 34 33 33 32
36 35 35 35 35 34 34 34 33 33 32 31 30 30 30 29 29 29 28 28 28 27 27 27 27 27 27 26 25 25 27 28 30 30 30 31 32 32 33 33 33 33 33
37 36 35 36 36 36 36 35 35 34 32 31 31 30 29 29 29 28 27 26 26 26 26 26 25 25 25 25 24 24 25 26 27 28 29 29 29 30 30 31 32 33 32
37 34 35 36 37 38 37 37 36 35 33 31 30 29 28 28 28 27 26 25 25 25 24 24 24 24 24 24 24 23 24 24 24 24 26 27 26 27 27 28 29 31 31
37 37 36 37 38 38 38 38 38 36 33 32 29 28 28 27 27 26 25 25 24 24 23 23 23 23 23 23 23 23 23 24 24 24 24 25 26 26 26 26 27 28 29
36 36 37 38 39 39 39 39 38 36 34 32 30 28 27 26 26 26 25 25 25 24 24 24 24 23 23 24 24 24 24 24 25 25 25 24 25 25 25 26 26 26 27
35 35 38 39 39 40 41 39 38 35 34 31 29 28 27 26 26 26 26 26 25 25 25 25 25 25 25 25 26 25 25 25 25 25 25 25 25 25 25 25 25 25 27
35 36 38 39 40 40 39 38 37 35 32 29 29 29 28 27 26 27 27 27 27 27 27 27 27 27 26 26 27 27 27 26 26 24 25 25 26 26 26 26 26 25 26
35 36 37 37 38 39 38 39 37 34 32 31 30 30 30 29 29 28 29 29 29 29 29 29 29 29 28 28 28 28 28 27 28 26 25 26 26 26 27 27 27 26 26
34 35 36 36 37 38 37 38 38 36 34 33 33 33 32 32 32 31 31 31 31 32 32 32 31 31 31 30 30 29 29 29 29 29 27 26 27 27 28 28 29 29 28

GEFSSE_500_meanwind_078.txt.gz
Wind_Speed
5 6 7 7 7 8 8 9 9 10 10 11 11 12 12 13 13 13 13 13 13 13 12 12 12 12 11 11 11 11 11 11 11 11 10 9 9 8 6 6 6 6 7
3 4 5 5 6 6 7 7 8 8 9 9 10 10 11 12 12 12 12 13 12 12 12 12 11 11 11 10 10 10 10 9 9 9 9 8 8 8 7 6 5 5 6
3 4 4 5 5 6 6 7 7 8 8 8 9 9 10 11 11 11 12 12 12 12 11 11 11 11 10 10 10 9 9 8 8 8 8 8 7 7 6 6 5 4 5
4 5 5 6 6 6 7 7 7 8 8 8 8 8 9 10 11 11 11 12 11 11 11 11 11 11 10 9 9 9 8 8 7 7 7 7 6 5 5 5 4 3 3
6 6 6 6 7 7 7 7 7 8 8 8 8 9 9 10 11 11 12 12 12 11 11 11 11 11 10 10 9 8 8 7 7 6 5 5 5 4 3 3 3 2 2
8 8 8 8 8 8 8 8 8 8 8 8 9 9 10 11 12 13 13 13 12 12 12 12 12 11 11 10 10 8 7 7 7 6 5 4 4 3 2 1 1 1 1
9 9 9 9 9 9 8 8 8 9 9 10 10 11 12 13 14 14 14 14 14 13 13 13 13 13 12 12 11 10 9 7 7 6 6 5 4 3 2 2 1 1 1
10 10 10 9 9 9 9 10 10 11 11 12 13 14 15 15 16 16 16 16 16 15 15 15 15 15 15 14 14 13 12 10 9 8 8 7 6 5 5 4 3 2 2
11 11 11 10 10 10 11 12 13 13 14 15 16 16 17 18 18 18 19 19 19 18 18 18 18 18 17 17 17 16 16 14 12 11 11 11 9 8 7 6 5 4 4
11 11 12 12 12 13 14 15 15 16 16 17 18 19 20 20 21 21 21 22 22 21 21 21 21 20 20 20 20 20 19 18 17 15 15 14 13 12 11 9 8 7 6
13 13 13 14 15 15 16 16 17 17 18 19 20 21 22 23 23 24 24 24 24 24 23 24 23 23 23 23 23 23 23 22 21 20 19 18 17 16 14 13 12 11 9
16 16 16 17 17 17 18 18 19 19 20 20 21 22 23 24 25 26 26 26 26 26 25 25 25 24 25 25 25 25 25 25 24 24 23 22 21 20 18 16 15 14 13
19 19 19 20 20 20 20 20 20 21 21 22 22 23 24 25 26 27 27 27 27 27 27 26 26 26 26 26 26 26 26 27 27 26 26 25 25 24 23 21 19 18 17
22 22 22 22 22 22 22 22 22 22 23 23 24 24 25 27 28 28 28 27 27 27 27 26 26 26 26 25 25 24 25 25 26 27 27 28 28 28 27 25 24 23 22
25 24 23 24 23 23 24 23 23 24 24 24 24 25 26 26 27 28 29 27 26 26 25 25 25 24 24 23 24 24 23 23 24 26 25 27 28 29 29 27 26 26 25
27 26 26 26 26 25 24 25 25 25 25 25 25 26 26 26 28 28 28 27 26 24 23 23 23 22 22 21 21 21 21 21 22 23 22 24 25 28 30 29 28 29 29
30 29 28 27 28 28 27 27 26 26 26 26 26 27 27 27 28 28 27 26 25 24 23 22 21 21 20 19 19 18 18 18 17 18 20 21 22 23 25 27 28 27 29
34 33 29 29 29 29 29 28 27 27 28 27 27 28 28 28 28 27 26 25 24 22 21 21 20 20 19 18 18 17 16 15 16 16 17 18 19 21 23 24 26 27 27
38 36 33 31 31 31 30 29 27 28 29 29 29 29 29 30 29 27 26 25 23 22 21 20 19 19 18 17 16 16 16 15 15 15 15 16 17 18 20 22 23 25 26
38 38 33 29 29 29 28 26 28 28 28 29 31 32 31 30 29 27 25 24 23 21 21 20 19 19 18 16 15 15 15 15 15 14 14 15 16 17 18 20 21 22 24
39 35 30 29 26 25 25 27 28 29 29 30 31 32 31 30 29 28 27 24 23 22 21 20 20 19 18 17 16 15 15 15 15 15 15 15 15 16 17 18 20 21 23
36 32 28 28 28 27 28 29 30 29 31 31 30 31 30 30 29 28 26 24 23 23 22 21 21 20 20 18 17 17 17 16 16 16 16 15 15 16 16 17 19 21 22
33 32 30 28 27 27 29 30 30 31 32 31 31 31 30 30 28 27 26 24 24 24 23 23 22 22 21 20 19 18 18 18 18 17 17 16 16 16 17 17 18 19 21
31 30 29 28 28 29 30 32 32 33 34 33 33 33 32 31 29 28 27 27 26 26 26 25 25 24 24 23 22 21 20 19 19 19 18 18 17 17 17 18 18 19 20
29 30 30 29 29 30 32 33 34 36 36 35 35 35 33 32 32 31 29 29 29 29 29 28 28 28 27 26 25 25 23 22 21 20 20 20 19 18 18 18 18 19 20
31 31 32 31 33 34 35 36 37 38 38 38 38 38 37 36 35 34 33 33 33 33 33 31 31 31 30 29 29 28 27 26 25 23 22 22 21 21 20 19 19 19 20

GEFSSE_500_meanwind_084.txt.gz
Wind_Speed
3 4 4 5 6 6 6 6 6 7 7 7 7 7 8 8 8 9 9 9 9 9 9 9 10 10 9 9 9 8 8 8 8 8 8 8 7 7 6 6 6 7 8
4 5 6 6 7 7 6 6 6 6 6 5 5 5 6 6 7 7 7 7 8 8 8 8 8 8 8 8 7 7 6 6 7 7 6 6 6 6 6 6 6 6 7
6 6 8 8 8 8 8 7 6 6 5 5 5 5 5 5 5 6 6 6 7 7 7 7 7 7 6 6 6 6 5 5 5 5 5 5 5 5 5 6 6 6 7
8 8 10 10 10 10 9 8 7 6 6 5 5 5 5 5 6 6 6 7 7 7 6 6 6 6 5 5 4 4 4 3 3 3 3 3 3 4 4 5 5 6 7
10 11 12 12 12 11 10 9 8 8 7 7 7 7 7 7 8 8 8 8 8 8 7 7 7 6 6 5 5 4 3 2 2 1 1 1 2 3 4 4 5 5 6
12 12 13 13 13 12 12 11 10 9 9 9 9 9 9 10 10 11 11 11 10 10 10 9 9 8 8 7 7 6 5 4 3 2 1 1 2 2 3 4 4 4 5
13 14 14 14 14 13 13 12 11 11 11 11 12 12 12 13 13 13 13 13 13 13 13 12 12 11 10 9 9 8 7 7 6 5 4 4 3 3 3 4 4 4 5
13 15 15 15 14 14 13 13 13 13 14 14 15 15 15 16 16 16 16 16 16 16 15 15 15 15 14 13 12 11 10 10 9 8 7 7 6 6 6 5 5 5 5
13 14 15 16 15 15 14 15 15 16 16 17 17 17 17 18 18 18 18 19 19 18 18 18 18 18 17 16 15 14 14 13 13 12 11 10 10 9 9 8 7 7 7
14 15 16 17 17 17 17 18 18 19 19 19 19 19 19 19 20 20 20 20 20 20 20 20 20 20 20 19 18 17 17 17 16 16 15 14 13 13 12 11 11 10 9
15 17 18 19 19 20 20 20 21 21 21 21 21 21 21 21 21 21 21 21 21 21 21 21 21 21 21 21 20 19 19 19 19 19 19 18 17 16 16 15 14 14 13
18 19 20 21 22 23 24 24 24 23 24 24 23 23 22 23 23 23 23 22 21 21 21 21 21 21 22 22 22 21 21 21 21 21 21 21 20 20 19 19 18 17 16
20 21 22 23 25 26 27 27 26 25 25 24 25 24 24 24 24 24 24 23 22 21 21 21 21 21 22 22 23 23 22 21 21 21 22 23 23 22 22 22 22 21 20
23 23 24 26 28 29 29 29 29 27 27 26 25 26 26 25 26 25 25 23 23 22 22 21 21 22 22 22 23 23 22 21 22 22 23 23 24 24 24 24 24 24 24
25 25 26 28 30 32 32 31 31 30 29 29 29 28 27 27 26 26 26 24 23 23 22 23 22 21 21 21 21 22 21 20 20 21 22 22 23 24 25 26 25 25 27
27 28 30 32 32 32 33 33 34 34 33 32 30 29 28 28 28 27 25 24 24 23 23 22 22 21 21 21 21 21 21 20 19 21 21 22 22 23 25 26 27 27 27
30 32 33 34 35 34 35 38 38 37 36 34 32 30 29 29 28 24 22 23 23 23 22 22 22 22 22 21 20 20 20 20 20 19 19 19 20 21 23 24 26 26 27
32 34 35 36 37 37 38 39 40 39 37 34 32 30 29 27 25 23 22 23 23 23 22 21 21 21 20 20 19 19 19 20 19 19 18 18 19 19 20 22 23 25 27
34 35 38 38 35 35 37 37 39 39 38 36 32 29 27 25 24 22 21 22 22 22 21 21 20 20 19 19 19 19 19 19 19 19 18 18 19 19 19 21 21 21 23
35 36 37 36 36 36 37 36 36 36 34 32 30 27 27 25 24 23 22 22 21 21 20 20 19 19 19 19 19 18 18 18 18 18 17 17 18 18 18 19 19 20 21
37 38 38 37 36 36 35 32 33 32 29 28 27 26 24 23 23 23 21 21 21 20 20 20 20 19 19 19 18 18 18 18 17 17 16 16 16 17 17 17 18 19 20
39 38 38 37 36 34 34 31 30 26 26 26 24 23 22 23 24 23 22 21 21 21 21 21 20 20 20 19 19 19 19 19 18 17 16 16 15 16 16 16 17 18 18
38 38 39 37 34 33 33 31 28 26 25 23 22 22 24 25 25 25 24 23 22 23 23 22 22 22 22 22 21 21 21 21 20 19 18 17 16 16 16 16 16 16 17
35 35 36 36 35 34 33 32 30 27 25 25 25 26 27 27 27 27 27 26 25 25 24 24 25 24 25 25 24 23 23 23 22 22 21 19 18 17 17 17 16 16 17
34 34 35 36 37 37 35 34 33 32 30 30 29 30 31 32 32 31 30 30 29 29 28 28 28 28 27 27 27 26 26 25 25 25 23 22 21 20 19 18 18 17 17
33 33 35 37 38 37 38 39 38 37 36 36 36 36 36 37 36 36 36 35 34 34 33 32 32 32 31 30 29 29 29 28 28 28 27 26 24 23 22 21 20 19 18

GEFSSE_500_meanwind_090.txt.gz
Wind_Speed
2 2 3 3 4 5 6 7 8 8 7 5 4 3 3 3 3 4 4 4 5 5 5 5 5 6 6 6 6 5 5 5 5 5 5 4 5 4 4 5 5 5 6
4 4 5 5 5 6 7 9 9 9 8 7 6 4 4 3 2 2 2 3 3 3 3 3 3 4 4 4 4 4 4 4 3 3 3 3 4 4 4 4 5 5 6
6 7 7 7 7 8 9 10 11 11 10 9 7 6 5 4 4 3 3 2 2 2 2 1 2 2 2 2 2 2 2 2 2 2 2 2 3 3 3 4 4 5 6
8 8 9 8 9 9 10 11 12 12 11 10 9 8 7 6 6 5 5 4 4 3 3 3 2 2 2 2 1 1 0 0 0 0 1 1 1 2 3 3 4 5 6
9 10 10 10 10 11 12 12 13 13 13 12 11 10 9 9 8 8 8 7 6 6 5 5 5 5 4 4 4 3 3 2 2 2 2 2 2 2 3 3 4 5 6
10 11 11 11 11 12 13 13 14 14 14 13 12 12 11 11 11 11 10 10 9 9 8 8 7 7 7 7 6 6 6 5 5 5 4 4 4 4 4 4 5 5 6
11 11 11 11 12 13 14 14 15 15 14 14 14 14 14 14 14 14 13 12 12 12 11 10 10 10 10 10 9 9 9 8 8 7 7 7 6 6 6 6 6 7 7
12 11 12 12 13 13 14 15 16 16 16 17 17 17 17 17 17 16 16 15 14 14 14 13 13 13 13 13 13 12 12 11 11 11 10 10 9 9 9 9 8 8 8
14 13 14 14 14 15 15 16 17 18 19 19 20 20 20 19 19 19 18 18 17 16 16 16 16 16 16 16 16 15 15 14 14 14 13 13 12 12 11 11 11 11 10
15 15 16 16 16 17 17 18 19 20 21 22 22 23 23 23 22 21 21 20 19 18 18 18 18 18 18 17 18 18 18 17 17 17 16 16 15 15 15 14 14 13 13
18 18 18 19 19 20 20 21 22 22 23 24 24 25 26 26 25 24 23 22 21 20 20 19 19 19 19 19 19 19 19 20 20 20 19 18 18 18 18 18 17 16 15
19 20 20 21 21 22 23 24 25 26 26 27 28 28 28 28 27 27 26 25 24 23 21 21 20 20 20 20 19 19 20 21 21 21 21 21 21 20 20 20 20 20 19
21 22 22 22 23 24 25 26 27 28 29 30 31 30 30 29 29 29 29 28 26 25 24 22 21 20 20 20 20 20 20 21 22 22 22 22 22 22 22 22 22 22 22
24 25 25 25 25 27 28 28 30 31 32 32 33 33 33 32 32 32 31 30 28 26 25 24 23 22 21 20 20 20 20 20 21 21 22 22 23 23 23 24 24 24 23
27 28 29 29 29 30 30 30 32 34 33 34 35 35 35 35 35 34 32 31 30 28 27 25 24 24 22 22 21 20 19 20 21 21 21 22 22 22 23 24 24 25 25
29 30 31 32 33 33 33 33 34 35 35 36 36 37 37 37 36 36 35 34 32 31 29 27 26 25 24 23 22 21 20 21 21 20 21 20 22 22 22 24 25 25 26
32 33 34 35 36 36 37 37 35 35 35 36 37 37 37 38 38 38 36 36 34 32 30 29 28 26 24 24 23 21 21 20 20 19 19 19 19 21 21 23 25 25 27
34 35 36 37 38 39 40 39 36 37 37 38 38 37 37 38 39 38 37 37 34 32 30 29 28 27 25 24 23 21 21 20 20 19 19 19 19 20 20 21 23 24 24
36 37 37 37 39 39 40 39 38 38 38 38 37 37 36 36 37 39 37 37 34 32 30 28 27 26 25 23 22 21 20 20 20 19 19 19 19 19 20 20 21 23 23
37 38 39 40 40 39 39 40 39 38 37 35 35 36 35 37 36 36 35 35 33 31 29 27 26 25 25 24 23 22 21 21 20 19 19 19 19 19 19 20 20 22 23
37 38 39 40 40 41 41 40 39 38 37 36 34 33 35 34 34 34 35 35 32 30 28 27 26 25 25 24 24 23 22 22 21 20 19 19 19 19 19 19 19 20 21
36 38 39 40 41 41 39 38 37 37 37 35 32 30 30 30 30 31 31 31 29 27 26 27 26 25 25 25 24 23 23 22 22 21 21 20 19 19 19 19 19 19 18
36 38 39 38 38 37 37 37 36 36 35 33 32 31 29 27 28 31 31 29 28 27 27 27 27 27 26 26 25 25 24 24 23 23 22 21 21 20 19 19 18 18 17
36 37 37 38 38 37 37 37 38 38 36 35 34 33 31 30 31 31 31 32 31 29 29 28 29 29 28 28 28 27 27 26 25 25 24 24 23 22 21 20 19 18 18
35 36 37 38 39 40 39 40 39 39 39 38 37 35 34 33 32 32 32 33 33 32 31 31 31 31 30 30 30 30 29 29 28 28 27 26 25 24 23 22 21 20 19
38 39 40 41 41 41 42 42 42 42 42 42 41 40 39 37 36 35 34 35 35 35 34 34 34 34 33 33 33 33 32 32 32 31 31 30 29 27 26 25 23 22 21